SCP
0 0 0 0 0 0 0 0 0 0 0 0 0 0 0 0 0 0 0 0 0 0 0 0 0 0 0 0 0 0 0 0 0 0 0 0 0 0 0 0 0 0 0 0
0 0 0 0 0 0 0 0 0 0 0 0 0 0 0 0 0 0 0 0 0 0 0 0 0 0 0 0 0 0 0 0 0 0 0 0 0 0 0 0 0 0 0 0
0 0 0 0 0 0 0 0 0 0 0 0 0 0 0 0 0 0 0 0 0 0 0 0 0 0 0 0 0 0 0 0 0 0 0 0 0 0 0 0 0 0 0 0
0 0 0 0 0 0 0 0 0 0 0 0 0 0 0 0 0 0 0 0 0 0 0 0 0 0 0 0 0 0 0 0 0 0 0 0 0 0 0 0 0 0 0 0
0 0 0 0 0 0 0 0 0 0 0 0 0 0 0 0 0 0 0 0 0 0 0 0 0 0 0 0 0 0 0 0 0 0 0 0 0 0 0 0 0 0 0 0
0 0 0 0 0 0 0 0 0 0 0 0 0 0 0 0 0 0 0 0 0 0 0 0 0 0 0 0 0 0 0 0 0 0 0 0 0 0 0 0 0 0 0 0
0 0 0 0 0 0 0 0 0 0 0 0 0 0 0 0 0 0 0 0 0 0 0 0 0 0 0 0 0 0 0 0 0 0 0 0 0 0 0 1 0 0 0 0
0 0 0 0 0 0 0 0 0 0 0 0 0 0 0 0 0 0 0 0 0 0 0 0 0 0 0 0 0 0 0 0 0 0 0 0 0 0 0 1 1 0 0 0
0 0 0 0 0 0 0 0 0 0 0 0 0 0 0 0 0 0 0 0 0 0 0 0 0 0 0 0 0 0 0 0 0 0 0 0 0 0 0 0 0 0 0 0
0 0 0 0 0 0 0 0 0 0 0 0 0 0 0 0 0 0 0 0 0 0 0 0 0 0 0 0 0 0 0 0 0 0 0 0 0 0 0 0 0 0 0 0
0 0 0 0 0 0 0 0 0 0 0 0 0 0 0 0 0 0 0 0 0 0 0 0 0 0 0 0 0 0 0 0 0 0 0 0 0 0 0 0 0 0 0 0
0 0 0 0 0 0 0 0 0 0 0 0 0 0 0 0 0 0 0 0 0 0 0 0 0 0 0 0 0 0 0 0 0 0 0 0 0 0 0 0 0 0 0 0
0 0 0 0 0 0 0 0 0 0 0 0 0 0 0 0 0 0 0 0 0 0 0 0 0 0 0 0 0 0 0 0 0 0 0 0 0 0 0 0 0 0 0 0
0 0 0 0 0 0 0 0 0 0 0 0 0 0 0 0 0 0 0 0 0 0 0 0 0 0 0 0 0 0 0 0 0 0 0 0 0 0 0 0 0 0 0 0
0 0 0 0 0 0 0 0 0 0 0 0 0 0 0 0 0 0 0 0 0 0 0 0 0 0 0 0 0 0 0 0 0 0 0 0 0 0 0 0 0 0 0 0
0 0 0 0 0 0 0 0 0 0 0 0 0 0 0 0 0 0 0 0 0 0 0 0 0 0 0 0 0 0 0 0 0 0 0 0 0 0 0 0 0 0 0 0
0 0 0 0 0 0 0 0 0 0 0 0 0 0 0 0 0 0 0 0 0 0 0 0 0 0 0 0 0 0 0 0 0 0 0 0 0 0 0 0 0 0 0 0
0 0 0 0 0 0 0 0 0 0 0 0 0 0 0 0 0 0 0 0 0 0 0 0 0 0 0 0 0 0 0 0 0 0 0 0 0 0 0 0 0 0 0 0
0 0 0 0 0 0 0 0 0 0 0 0 0 0 0 0 0 0 0 0 0 0 0 0 0 0 0 0 0 0 0 0 0 0 0 0 0 0 0 0 0 0 0 0
0 0 0 0 0 0 0 0 0 0 0 0 0 0 0 0 0 0 0 0 0 0 0 0 0 0 0 0 0 0 0 0 0 0 0 0 0 0 0 0 0 0 0 0
0 0 0 0 0 0 0 0 0 0 0 0 0 0 0 0 0 0 0 0 0 0 0 0 0 0 0 0 0 0 0 0 0 0 0 0 0 0 0 0 0 0 0 0
0 0 0 0 0 0 0 0 0 0 0 0 0 0 0 0 0 0 0 0 0 0 0 0 0 0 0 0 0 0 0 0 0 0 0 0 0 0 0 0 0 0 0 0
0 0 0 0 0 0 0 0 0 0 0 0 0 0 0 0 0 0 0 0 0 0 0 0 0 0 0 0 0 0 0 0 0 0 0 0 0 0 0 0 0 0 0 0
0 0 0 0 0 0 0 0 0 0 0 0 0 0 0 0 0 0 0 0 0 0 0 0 0 0 0 0 0 0 0 0 0 0 0 0 0 0 0 0 0 0 0 0
0 0 0 0 0 0 0 0 0 0 0 0 0 0 0 0 0 0 0 0 0 0 0 0 0 0 0 0 0 0 0 0 0 0 0 0 0 0 0 0 0 0 0 0
0 0 0 0 0 0 0 0 0 0 0 0 0 0 0 0 0 0 0 0 0 0 0 0 0 0 0 0 0 0 0 0 0 0 0 0 0 0 0 0 0 0 0 0
Wind_Speed
10 10 16 19 19 8 10 13 14 9 5 9 14 18 18 14 12 14 14 13 14 16 15 15 16 16 16 16 16 17 17 16 13 10 9 8 9 8 8 8 10 11 10 11
11 19 19 15 16 11 10 11 11 5 2 6 11 17 18 17 16 17 17 16 15 15 13 14 16 17 18 19 18 18 18 17 16 12 11 8 9 8 9 8 10 12 12 11
20 12 16 15 17 17 14 14 11 6 2 3 7 16 20 19 17 17 17 17 17 16 16 16 17 19 19 20 21 17 19 19 18 17 11 8 8 6 7 9 9 12 13 12
17 9 18 19 20 19 15 10 8 6 5 6 5 12 13 15 18 19 20 19 19 18 17 17 17 19 21 21 19 20 20 20 19 18 15 16 13 12 12 10 10 12 13 13
14 15 20 22 20 17 7 9 8 6 6 8 8 11 12 8 16 18 20 21 21 20 19 19 19 20 20 20 19 19 20 20 20 20 19 18 16 14 11 11 13 12 11 13
6 7 13 12 12 13 12 9 6 3 2 12 16 14 15 11 14 14 15 18 20 20 19 19 18 16 17 16 17 18 19 21 20 21 21 21 20 17 15 14 12 11 9 9
8 7 5 8 14 13 13 10 6 6 8 11 6 13 16 9 11 14 15 16 17 16 17 17 17 17 17 18 19 18 20 21 21 22 22 22 21 20 19 17 15 12 9 9
18 15 14 11 13 15 17 15 10 10 9 6 6 14 13 6 9 11 13 14 12 13 14 15 16 16 16 17 18 19 21 21 21 21 21 20 20 16 14 17 14 13 11 11
20 13 11 8 6 15 15 13 5 2 1 4 9 10 12 8 11 13 14 14 14 13 11 12 12 13 14 15 17 19 20 20 20 21 21 19 19 18 16 16 15 11 10 8
11 11 11 8 7 6 10 12 7 8 8 10 11 12 10 5 10 13 13 13 13 9 8 9 10 10 10 11 12 14 17 18 18 19 18 14 18 17 16 14 14 12 11 10
10 11 11 10 16 17 12 13 10 9 7 8 9 9 5 9 8 8 8 8 8 7 7 7 7 7 7 7 9 11 13 15 15 16 16 16 15 15 14 13 13 12 11 12
8 9 10 10 3 12 13 15 15 12 10 8 7 11 3 6 5 5 6 5 5 5 5 5 5 5 6 7 8 9 10 12 12 13 13 13 12 12 12 12 12 12 12 12
11 12 12 7 5 9 15 16 18 10 5 8 9 13 3 5 6 6 6 6 5 5 4 4 4 5 6 6 7 7 8 9 9 9 10 11 11 11 11 10 10 11 12 12
9 8 12 18 14 16 16 19 20 15 10 14 21 21 12 9 9 7 6 6 7 6 5 5 5 6 6 6 7 7 7 7 7 7 8 9 9 9 9 9 10 10 11 12
9 8 9 7 9 17 18 22 24 25 25 20 22 25 24 17 14 11 9 8 8 8 8 8 7 7 7 7 7 7 7 6 6 7 7 7 5 6 7 8 9 9 9 10
11 9 8 4 9 13 13 22 27 29 29 28 24 25 19 15 12 13 14 12 12 12 10 9 8 8 9 9 9 8 8 7 7 7 7 6 6 6 7 7 8 9 9 9
13 10 10 8 7 6 14 25 27 26 27 25 29 30 12 10 14 16 15 13 13 14 12 10 9 10 9 9 9 10 9 8 7 6 6 6 7 7 7 8 9 9 10 10
16 10 6 8 9 15 15 13 20 24 26 27 23 16 13 16 14 13 13 13 13 12 11 10 8 8 7 7 8 8 8 8 8 7 7 7 7 7 7 8 9 9 8 9
15 13 7 8 12 14 9 8 17 20 24 24 26 23 16 8 6 13 11 10 12 11 9 8 6 5 5 7 8 8 8 8 8 8 8 8 8 8 9 9 9 7 8 8
8 11 9 9 12 17 11 9 10 11 18 15 19 21 17 11 12 14 5 5 6 6 4 3 2 3 4 6 8 9 8 8 9 8 8 8 8 8 9 9 8 6 7 8
12 9 13 12 12 11 5 7 14 14 13 7 14 16 14 15 14 4 2 1 0 1 2 1 1 2 3 5 7 7 7 8 6 5 6 6 7 7 7 7 7 8 7 8
18 15 15 11 12 13 8 12 16 9 3 4 6 8 9 9 5 2 0 1 2 2 3 2 2 2 3 5 6 6 6 4 5 6 6 6 6 6 6 8 8 8 9 9
14 14 10 12 12 3 12 11 6 4 5 4 5 5 7 6 4 3 2 1 2 3 3 3 3 4 3 2 3 4 3 5 6 6 6 6 6 5 6 8 9 8 8 8
5 3 6 5 6 5 7 4 2 3 3 3 3 5 6 6 6 5 3 2 3 3 3 3 4 4 3 2 2 2 4 5 6 6 6 6 6 6 6 6 7 7 8 8
7 8 6 6 3 3 4 6 5 4 4 5 5 4 5 7 6 5 4 3 3 3 3 3 3 4 3 3 3 3 3 5 5 5 5 5 5 6 6 5 5 6 5 6
4 6 9 8 8 7 7 5 6 7 6 6 7 5 4 5 6 6 5 4 4 4 4 4 4 4 4 3 4 3 2 3 5 5 5 4 4 4 5 5 3 5 5 6
Wind_Direction
166 181 199 197 203 221 199 208 219 224 205 214 235 246 250 243 237 243 240 233 227 228 225 211 208 207 205 204 202 201 199 198 195 193 194 197 203 203 206 209 208 206 203 201
167 210 206 197 198 202 199 209 218 214 186 233 255 256 254 249 244 243 243 237 232 230 220 211 207 206 207 206 205 204 203 200 198 198 197 200 200 208 209 205 210 210 207 205
195 198 183 183 192 203 212 218 214 206 153 230 279 265 248 244 240 242 243 243 240 232 224 214 208 207 208 210 209 206 204 203 201 200 198 196 198 199 203 208 209 211 210 207
203 171 177 189 199 199 214 209 202 186 213 239 235 272 253 241 241 237 237 236 236 232 227 221 211 209 210 211 209 209 207 206 203 200 200 197 200 204 206 205 207 207 209 209
193 179 181 195 199 194 189 164 179 196 227 256 231 260 264 230 244 242 238 236 235 232 227 223 215 212 212 210 208 209 209 208 205 203 203 204 211 214 211 207 208 206 206 209
159 177 190 191 180 172 132 116 95 90 206 249 235 238 265 230 238 244 241 238 235 232 228 227 223 217 216 210 209 209 210 211 208 206 207 209 212 212 210 207 206 204 203 205
164 175 172 150 148 163 162 150 162 190 212 240 196 224 254 244 234 241 246 245 240 234 230 227 223 217 214 209 208 209 210 212 210 209 210 212 214 213 214 210 208 203 201 202
182 189 184 177 174 174 186 186 193 200 212 213 187 235 255 248 252 254 258 262 263 251 238 231 225 219 215 212 209 208 211 214 211 211 213 213 214 214 216 214 209 206 203 202
186 182 161 175 160 161 174 201 201 141 93 245 227 249 275 251 253 249 248 250 253 251 246 241 233 225 220 215 211 210 211 214 213 213 213 213 213 214 214 211 210 207 202 191
165 157 160 154 134 168 182 163 159 192 198 232 246 246 249 230 230 238 244 249 255 257 252 246 238 230 225 223 218 214 215 216 215 214 214 213 213 213 212 208 205 200 191 181
137 135 150 168 187 177 162 176 183 191 222 224 244 250 226 234 237 250 261 271 278 271 257 246 239 229 224 222 220 217 217 218 217 215 216 214 213 210 208 206 201 192 182 178
136 127 152 180 197 199 190 188 182 188 203 221 248 260 186 225 248 260 277 285 286 277 275 265 249 230 219 217 216 218 219 220 220 217 216 214 211 206 204 201 193 182 179 177
144 133 131 152 184 192 205 200 200 201 177 200 223 250 195 217 242 248 265 287 294 286 277 261 243 232 224 221 218 216 218 220 219 215 212 209 204 202 199 191 180 176 174 169
138 155 181 189 189 179 195 198 198 195 208 222 231 245 242 242 250 259 262 272 286 290 277 266 250 237 225 221 220 217 215 213 209 208 207 205 200 196 187 174 169 171 170 168
161 180 194 191 159 171 192 198 198 208 218 226 236 241 246 248 257 268 275 279 283 280 269 254 247 240 226 218 215 214 209 202 197 198 201 201 183 174 164 161 161 161 163 166
180 179 166 154 171 179 198 206 205 213 221 231 245 252 252 256 257 262 267 271 275 277 273 259 244 237 228 218 210 204 202 194 190 195 195 180 164 158 159 157 153 153 154 153
177 156 164 179 155 158 223 212 208 216 223 227 237 246 242 242 245 252 258 260 263 267 269 261 246 238 228 216 204 201 195 182 184 185 176 167 163 162 161 155 154 157 157 154
175 156 146 143 150 215 234 207 207 218 226 225 234 245 237 241 247 251 253 257 261 262 262 262 253 243 226 205 197 190 181 179 180 180 178 173 169 163 158 158 161 159 156 159
179 162 147 169 200 237 242 195 199 209 232 228 234 241 241 238 264 262 249 243 253 264 267 266 256 237 205 189 182 174 177 179 183 187 184 179 173 166 164 166 165 157 155 155
175 176 166 178 204 227 232 183 178 192 244 225 224 234 233 213 240 253 230 222 249 270 276 268 236 187 182 175 166 170 178 186 196 193 182 175 173 170 171 169 161 155 153 151
172 180 193 195 215 241 211 154 153 189 234 200 208 220 214 212 230 245 119 126 340 331 341 5 140 155 167 157 159 174 183 199 193 165 157 163 170 170 166 156 153 151 147 144
179 186 198 196 216 228 161 159 184 207 167 176 188 203 199 206 208 193 128 53 35 22 28 48 89 94 111 144 161 177 193 175 144 149 157 162 163 161 154 152 152 154 153 152
192 190 184 198 216 149 167 188 198 159 173 181 173 175 169 170 181 176 151 88 57 44 43 50 80 85 76 113 160 174 163 144 147 151 157 156 155 156 159 162 161 161 164 165
210 145 154 194 216 187 189 188 174 163 166 152 145 145 150 153 154 145 128 104 84 60 50 58 85 88 70 62 81 111 129 144 149 155 155 154 159 163 166 170 172 175 178 177
174 169 173 201 190 147 211 205 178 145 125 115 102 103 129 137 135 132 122 106 91 74 57 61 79 85 75 75 76 83 123 142 146 147 151 159 167 167 172 180 188 192 196 197
173 180 187 203 183 179 189 181 165 152 146 140 126 106 86 112 123 117 107 96 90 81 70 70 70 76 74 76 71 65 95 139 146 150 161 169 171 170 173 173 181 207 205 210